User: anonymous   Login
Location: Melbourne
(37.8170°S, 144.9670°E)
Time: 13:12:09
(UTC+11:00)
Language:

Cosmos 962 Rocket - Orbit

View from above orbital plane
View from above orbital plane
View from above satellite
View from above satellite

Ground track
Ground track

The orbit data is extracted from the following two-line orbital elements,

1 10461U 77107B   18052.91626122 +.00000037 +00000-0 +21789-4 0  9990
2 10461 082.9507 188.0084 0033797 167.4868 307.6535 13.76789876024864
Epoch (UTC): 21 February 2018 21:59:24
Eccentricity: 0.0033797
inclination: 82.9507°
perigee height: 950 km
apogee height: 1000 km
right ascension of ascending node: 188.0084°
argument of perigee: 167.4868°
revolutions per day: 13.76789876
mean anomaly at epoch: 307.6535°
orbit number at epoch: 2486

The dashed part of the orbit path shows where the satellite is in the earth's shadow,  

DLR